Location: Banff
(51.1667°N, 115.5667°W)
Time: 06:11:17
(UTC+00:00)

S-56A Canister/Altair - Pass Details

Date: 27 November 2020
Orbit: 633 x 2499 km, 38.9° (Epoch: 21 January)

Event Time Altitude Azimuth Distance (km) Brightness Sun altitude
Rises 04:45:00 0° 237° (WSW) 5,099 12.0 -46.2°
Reaches altitude 10° 04:49:17 10° 228° (SW) 3,774 11.2 -46.8°
Enters shadow 04:50:29 13° 224° (SW) 3,416 10.9 -46.9°
Maximum altitude 04:56:48 29° 174° (S) 2,053 - -47.8°
Drops below altitude 10° 05:02:16 10° 116° (ESE) 2,685 - -48.5°
Sets 05:04:47 0° 104° (ESE) 3,431 - -48.8°
